Location: Izdebno
(52.6670°N, 16.2170°E)
Time: 12:56:08
(UTC+02:00)

S-56A Canister/Altair - All Passes

Search period start: 20 April 2024 00:00
Search period end: 30 April 2024 00:00
Orbit: 639 x 2488 km, 38.9° (Epoch: 19 April)

Date Brightness Start Highest point End Pass type
(mag) Time Alt. Az. Time Alt. Az. Time Alt. Az.
20 Apr - 16:59:35 10° SSE 17:01:22 11° SE 17:03:20 10° SE daylight
20 Apr - 18:58:28 10° SW 19:03:33 26° SSE 19:10:22 10° ESE daylight
20 Apr - 21:00:26 10° WSW 21:06:39 29° S 21:15:14 10° SE visible
20 Apr - 23:04:08 10° WSW 23:10:12 20° SSW 23:17:44 10° SSE visible
21 Apr - 18:25:38 10° SW 18:30:13 23° SSE 18:36:12 10° ESE daylight
21 Apr - 20:27:22 10° WSW 20:33:10 28° S 20:41:06 10° SE visible
21 Apr - 22:30:45 10° WSW 22:36:35 20° SSW 22:43:56 10° SSE visible
22 Apr - 17:52:52 10° SSW 17:56:57 21° SSE 18:02:04 10° ESE daylight
22 Apr - 19:54:20 10° WSW 19:59:42 27° S 20:07:00 10° SE daylight
22 Apr - 21:57:28 10° WSW 22:03:01 20° SSW 22:10:05 10° SSE visible
23 Apr - 17:20:10 10° SSW 17:23:42 18° SSE 17:27:57 10° ESE daylight
23 Apr - 19:21:20 10° SW 19:26:18 26° S 19:32:56 10° SE daylight
23 Apr - 21:24:15 10° WSW 21:29:29 21° SSW 21:36:13 10° SSE visible
24 Apr - 16:47:34 10° S 16:50:29 15° SSE 16:53:49 10° ESE daylight
24 Apr - 18:48:23 10° SW 18:52:57 24° S 18:58:55 10° SE daylight
24 Apr - 20:51:04 10° WSW 20:56:00 21° SSW 21:02:20 10° SSE visible
25 Apr - 16:15:09 10° S 16:17:17 13° SSE 16:19:36 10° SE daylight
25 Apr - 18:15:27 10° SW 18:19:37 23° S 18:24:57 10° SE daylight
25 Apr - 20:17:56 10° WSW 20:22:33 20° SSW 20:28:27 10° SSE daylight
26 Apr - 15:43:17 10° SSE 15:44:05 10° SSE 15:44:53 10° SE daylight
26 Apr - 17:42:32 10° SW 17:46:21 21° S 17:51:01 10° SE daylight
26 Apr - 19:44:50 10° SW 19:49:09 20° S 19:54:35 10° SSE daylight
26 Apr - 21:51:16 10° SW 21:52:12 10° SSW 21:53:11 10° SSW visible
27 Apr - 17:09:38 10° SW 17:13:04 19° S 17:17:10 10° SE daylight
27 Apr - 19:11:46 10° SW 19:15:46 19° S 19:20:46 10° SE daylight
27 Apr - 21:17:20 10° SW 21:18:45 11° SSW 21:20:15 10° SSW visible
28 Apr - 16:36:46 10° SSW 16:39:50 17° SSE 16:43:20 10° SE daylight
28 Apr - 18:38:43 10° SW 18:42:26 19° S 18:46:58 10° SE daylight
28 Apr - 20:43:44 10° SW 20:45:19 11° SSW 20:47:02 10° S daylight
29 Apr - 16:03:54 10° SSW 16:06:35 15° SSE 16:09:34 10° SE daylight
29 Apr - 18:05:41 10° SW 18:09:07 18° S 18:13:14 10° SE daylight
29 Apr - 20:10:16 10° SW 20:11:56 11° SSW 20:13:43 10° S daylight
